map of ABD home
Great Circle Mapper logo
ABD - Airport
Location
City:  Abadan, Khuzestan, Iran
ICAO:OIAA
IATA:ABD

Details
Type:Airport (Aerodrome, Airfield)
Use:Public/Civil
Latitude:3021'54"N (30.365000)
Longitude:4813'59"E (48.233056)
Elevation:19 ft (6 m)
Variation:3.67E (WMM2015 magnetic declination)
0.05 annual change
Runways:2
Longest:10174 × 148 ft (3101 × 45 m), paved

Time
Time Zone:UTC+3:30 (DST+4:30)
Local Time:

Weather
METAR:OIAA 291200Z 36006KT CAVOK 44/01 Q1004
TAF:OIAA 291100Z 2912/3018 28005MPS 7000 NSC
TEMPO 2912/2916 33010MPS 4000 SA
TEMPO 3000/3005 4000 HZ/DU
TEMPO 3008/3018 33007G12MPS 3000 SA

Related Locations
Nearby:
Farthest:GMR: 11895 mi / 19143 km
Mangareva [Totegegie], Gambier Islands, PF

Find:

   beyond  
but within

Other Information
Maps:
NOTAMs:
Links:
Sources:

  
flag of Iran   

Sectional Chart

Flight Planning
at skyvector.com

Satellite Image

Google Maps Satellite view

 

Copyright © 2004-2016 Karl L. Swartz. All rights reserved.
The Great Circle Mapper name and logo are trademarks of the Great Circle Mapper.
All other trademarks mentioned herein belong to their respective owners.
Please see credits for attibutions and further copyright information.

  Follow gcmap on Facebook Follow gcmap on Twitter Follow gcmap on Google+ GCmap on LinkedIn

hCard Microformat

Geo Microformat